SkySat C9

operational
NORAD ID: 42989 Int'l Des: 2017-068 Owner: PLABST Country: US
LEOCIRCULARRETROGRADESSO

About SkySat C9

Description loading...

Live Position

Loading 3D Globe...

Upcoming Passes

Altitude History

Altitude vs Time

uPlot chart will show altitude changes over time

Two-Line Element Set

1 42989U 17068C 26061.16954501 .00018140 00000-0 47697-3 0 9990
2 42989 97.4245 197.2211 0009639 157.7297 202.4368 15.38591838466285
Epoch: Mar 2, 2026 • Age: 25 hours

Current Status

Altitude 451.7 km
Velocity 7.65 km/s
Sub-Earth Point 47.85°N, 148.45°W
Launch Date Oct 31, 2017
Age 8.3 years
Type earth observation

Technical Details

Classification Payload
Mass 110.00 kg
Dry Mass 110.00 kg
Total Mass 110.00 kg
Length 1.20 m
Diameter 0.50 m
Span 0.50 m
Shape Box
Manufacturer SSLMAX
Bus Type SkySat-Gen2
Phase Status In Orbit
Owner/State PLABST/US

Large Constellations

Loading constellations...